Find Starlink 2095

NORAD ID: 47679 Int'l Des: 2021-012 Owner: SPXS Country: US Constellation: starlink decayed
LEOCIRCULAR

Historical Track — Apr 20, 2026

Loading 3D Globe...

About Starlink 2095

Description loading...

Altitude History

Loading altitude history...

Two-Line Element Set

1 47679U 21012BM 26110.57493346 .08080012 12223-4 12811-2 0 9998
2 47679 53.0022 133.9493 0003483 334.2252 25.8617 16.33031237287845
Epoch: Apr 20, 2026 • Age: 851 hours

Current Status

Position data unavailable
Launch Date Feb 16, 2021
Age 5.2 years
Decay Date Apr 20, 2026
Type internet

Technical Details

Classification Payload
Mass 260.00 kg
Dry Mass 248.00 kg
Total Mass 260.00 kg
Length 0.20 m
Diameter 2.80 m
Span 9.00 m
Shape Box + pan
Manufacturer SPXS
Bus Type Starlink
Phase Status Unknown Transfer Status
Owner/State SPXS/US

Most Searched